Location: Fremont
(37.5480°N, 121.9880°W)
Time: 15:31:42
(UTC-07:00)

Daily predictions for brighter satellites

Satellite Brightness Start Highest point End
(mag) Time Altitude Azimuth Time Altitude Azimuth Time Altitude Azimuth
Cosmos 2333 Rocket 3.1 20:52:14 10° NNW 20:57:42 51° WSW 21:03:06 10° S
Resurs 1-3 4.1 20:54:56 10° S 20:59:16 65° W 21:03:38 10° NNW
Cosmos 1850 Rocket 4.2 20:55:29 10° S 21:00:27 50° ESE 21:05:28 10° NNE
Cosmos 1184 Rocket 2.8 20:59:49 10° S 21:03:08 67° E 21:06:30 10° NNE
ERS-1 Rocket 4.1 21:02:37 10° SE 21:06:51 28° ENE 21:11:06 10° N
Meteor 2-1 Rocket 4.4 21:01:17 10° N 21:07:04 65° ENE 21:12:42 10° SSE
USA 234 4.0 21:01:50 10° ENE 21:07:19 28° SE 21:12:46 10° S
Cosmos 1356 Rocket 4.3 21:08:34 10° SSE 21:12:18 31° E 21:16:05 10° NNE
Cosmos 1842 Rocket 3.8 21:10:22 10° N 21:14:45 73° W 21:19:04 10° S
YAOGAN 6 3.0 21:13:40 10° SSE 21:17:09 46° ENE 21:20:41 10° N
Meteor 2-15 Rocket 4.5 21:14:14 10° S 21:20:18 88° E 21:26:24 10° N
Cosmos 2297 Rocket 3.5 21:15:55 10° SW 21:21:17 45° WNW 21:26:43 10° N
H-2A R/B 3.9 21:20:14 10° ESE 21:23:38 17° ENE 21:27:03 10° NNE
Cosmos 1726 4.2 21:22:59 10° NE 21:24:56 14° ENE 21:26:41 11° ESE
Cosmos 1741 Rocket 4.0 21:20:40 10° SSW 21:25:59 86° ESE 21:31:19 10° NNE
Cosmos 2173 Rocket 4.4 21:20:55 10° N 21:26:49 45° E 21:32:33 11° SSE
RESURS DK-1 4.1 21:26:57 10° N 21:30:02 20° ENE 21:32:49 11° ESE
Cosmos 2263 Rocket 3.8 21:28:34 12° ESE 21:30:22 14° E 21:33:02 10° ENE
Cosmos 1818 3.6 21:25:39 10° NNW 21:31:06 72° ENE 21:35:50 14° SE
Cosmos 1076 Rocket 3.7 21:27:31 10° S 21:31:47 55° E 21:36:03 10° NNE
ATLAS 5 CENTAUR R/B 2.6 21:29:18 10° SW 21:33:49 56° NW 21:38:45 10° NNE
Meteor 1-21 Rocket 4.3 21:28:42 10° S 21:34:16 58° E 21:39:45 10° NNE
NOSS 3-4 (A) 4.3 21:28:00 10° NW 21:35:02 62° WSW 21:42:29 10° SSE
NOSS 3-4 (C) 4.3 21:28:05 10° NW 21:35:08 63° WSW 21:42:36 10° SSE
Cosmos 1408 Rocket 4.2 21:32:03 11° SSE 21:35:48 36° E 21:39:46 10° NNE
Spot 1 4.1 21:31:57 10° S 21:36:01 76° WSW 21:40:14 10° NNW
CZ-4B DEB 2.7 21:35:09 10° S 21:38:01 73° W 21:41:00 10° NNW
Tiangong 1 2.9 21:38:28 10° WNW 21:40:56 26° N 21:43:22 10° ENE
Cosmos 1939 Rocket 3.7 21:37:42 10° S 21:41:35 50° W 21:45:33 10° NNW
Cosmos 1340 Rocket 4.2 21:39:28 10° SSW 21:43:15 41° WNW 21:47:07 10° N
Milstar 3 Cent rocket 4.0 21:38:06 10° WSW 21:44:28 39° S 21:53:47 16° SE
Meteor 1-29 3.8 21:43:40 10° N 21:47:01 51° WNW 21:50:22 10° SSW
Cosmos 2221 2.7 21:43:38 10° N 21:48:02 77° W 21:52:20 10° S
Cosmos 1802 Rocket 4.0 21:45:39 10° N 21:51:45 62° E 21:56:40 16° SSE
Cosmos 2237 Rocket 4.1 21:47:44 10° NW 21:52:11 25° WSW 21:56:38 10° SSW
Cosmos 1674 2.8 21:48:57 10° SSW 21:52:42 74° W 21:56:28 10° N
SAR-Lupe-4 4.4 21:51:40 10° S 21:55:03 47° W 21:58:32 10° NNW
Envisat 4.5 21:50:38 10° SSW 21:55:12 34° W 21:59:48 10° NNW
GPS 2-05 Rocket1 3.4 21:54:05 10° SW 21:56:48 28° SSE 21:56:51 28° SSE
Cosmos 1603 4.1 21:55:25 10° NNW 22:00:55 51° ENE 22:04:18 22° SE
Cosmos 371 Rocket 4.3 21:57:50 10° N 22:02:11 33° ENE 22:04:29 22° ESE
Cosmos 1908 3.6 22:00:01 10° NNW 22:03:50 63° W 22:06:45 16° S
Cosmos 2208 Rocket 4.3 22:01:12 10° NNW 22:06:30 67° WSW 22:10:38 17° S
MetOp-A 4.1 22:03:05 18° SSE 22:07:04 85° ENE 22:12:27 10° NNW
Cosmos 1486 Rocket 4.5 22:04:44 21° SSE 22:07:48 41° ESE 22:12:45 10° NNE
SPOT 5 3.1 22:05:31 24° SE 22:08:19 60° ENE 22:13:19 10° N
Abrixas rocket 4.3 22:06:34 10° NNW 22:09:11 22° NNE 22:11:18 13° ENE
ARGOS 3.2 22:05:45 22° SSE 22:09:19 69° ENE 22:14:43 10° N
KORONAS-FOTON 4.0 22:06:47 11° SSW 22:10:22 67° W 22:14:09 10° N
Lacrosse 5 2.3 22:05:54 10° NNW 22:10:51 52° NE 22:13:41 24° ESE
Cosmos 1242 Rocket 3.3 22:09:33 10° NNW 22:13:09 49° W 22:15:35 19° SSW
Cosmos 1766 Rocket 3.7 22:09:04 11° SSW 22:13:14 73° W 22:17:34 10° N
Cosmos 1763 Rocket 4.3 22:08:40 10° N 22:13:20 35° ENE 22:15:31 24° ESE
Cosmos 1943 4.2 22:10:44 10° N 22:15:50 34° ENE 22:18:35 22° ESE
SL-16 R/B 3.3 22:12:18 10° NW 22:17:30 38° WSW 22:22:10 12° SSW
Cosmos 2016 Rocket 3.9 22:11:41 10° N 22:17:58 85° E 22:22:13 21° S
SPOT 1/Viking Rocket 3.8 22:15:47 27° SE 22:18:21 55° ENE 22:23:23 10° N
Cosmos 1328 Rocket 3.7 22:16:17 10° N 22:20:32 54° E 22:22:01 35° SE
USA 245 3.0 22:22:12 42° SSE 22:23:16 88° ESE 22:27:23 10° NNW
YAOGAN 11 4.1 22:23:30 30° SSE 22:25:43 87° WSW 22:30:17 10° NNW
Atlas Centaur 2 3.3 22:24:39 10° SW 22:25:43 13° SSW 22:25:43 13° SSW
Cosmos 1151 Rocket 3.9 22:22:33 10° NNE 22:26:34 34° ENE 22:27:26 31° ESE
OAO 1 Rocket 4.4 22:21:14 10° W 22:26:34 69° S 22:29:34 26° ESE
Cosmos 1515 Rocket 4.0 22:22:27 10° N 22:26:38 44° E 22:27:42 37° ESE
Landsat 7 4.4 22:26:21 32° ESE 22:28:00 44° ENE 22:32:30 10° N
H-2A R/B 3.6 22:28:08 21° E 22:28:59 22° ENE 22:32:16 10° NNE
Cosmos 1743 Rocket 3.4 22:27:29 34° S 22:29:18 72° E 22:33:37 10° NNE
Delta 2 Rocket 4.2 22:25:54 10° WSW 22:31:31 56° SSE 22:35:16 21° E
Cosmos 1703 4.3 22:33:10 30° E 22:33:10 30° E 22:36:30 10° NNE
Cosmos 2228 Rocket 3.1 22:30:57 10° N 22:35:34 76° E 22:37:05 41° SSE
SL-08 RB Rocket 3.8 22:38:09 34° S 22:40:05 71° WSW 22:44:42 10° NNW
Cosmos 2233 Rocket 4.2 22:36:10 10° N 22:42:15 56° E 22:44:36 36° SE
Terra 2.4 22:41:47 36° ESE 22:42:56 43° ENE 22:47:26 10° N
Cosmos 468 Rocket 4.2 22:39:07 10° NNW 22:44:11 61° WSW 22:46:23 33° S
ERS-1 Rocket 4.5 22:41:46 13° SSW 22:45:30 30° W 22:49:56 10° NW
USA 234 3.5 22:44:05 10° NE 22:50:36 72° NW 22:57:05 10° SW
Meteor 1-11 4.2 22:48:16 32° S 22:51:05 81° E 22:56:56 10° N
Cosmos 332 Rocket 4.1 22:47:58 10° NNW 22:52:48 60° WSW 22:54:27 38° SSW
Cosmos 1626 2.4 22:53:53 53° ENE 22:53:53 53° ENE 22:57:11 10° NNE
Cosmos 1503 Rocket 4.1 22:52:52 47° SE 22:53:52 55° ESE 22:58:55 10° NNE
Cosmos 2058 2.8 22:57:17 67° SSE 22:57:47 81° E 23:02:00 10° N
Cosmos 1726 3.7 22:57:06 10° NNW 23:00:18 29° W 23:01:19 25° WSW
Cosmos 1447 Rocket 4.4 22:58:41 34° S 23:01:41 86° E 23:08:04 10° N
H-2A R/B 2.5 23:00:21 35° SSW 23:02:29 59° W 23:07:50 10° NNW
Cosmos 304 Rocket 4.4 22:58:44 10° N 23:03:16 40° ENE 23:03:52 39° E
Cosmos 1300 3.9 23:01:20 10° NNW 23:04:51 35° W 23:05:39 32° WSW
RESURS DK-1 3.6 23:04:24 10° NW 23:08:08 32° WSW 23:08:44 31° SW
Meteor 1-27 4.2 23:02:52 10° N 23:08:42 89° W 23:10:25 48° S
CZ-4B R/B 3.8 23:06:07 10° NNE 23:11:11 47° E 23:11:22 47° ESE
Cosmos 540 Rocket 4.0 23:07:34 10° N 23:12:30 44° ENE 23:13:14 42° E
Sich 1 4.4 23:13:51 25° ENE 23:13:51 25° ENE 23:16:30 10° NNE
Cosmos 2263 Rocket 2.4 23:10:09 24° SW 23:13:35 69° WNW 23:19:10 10° NNE
Spot 4 4.3 23:13:21 44° E 23:13:50 45° ENE 23:18:28 10° N
ERBS 3.2 23:10:32 10° NW 23:13:03 46° WNW 23:13:03 46° WNW
Tiangong 1 3.2 23:14:16 10° WNW 23:15:40 23° NW 23:15:40 23° NW
deb Chang Zheng 4 3.4 23:19:43 10° NNE 23:24:07 90° ESE 23:24:10 88° S
Cosmos 2151 4.1 23:24:07 33° WSW 23:25:14 40° W 23:29:18 10° N
Cosmos 1707 Rocket 4.3 23:24:19 10° N 23:28:12 43° ENE 23:28:12 43° ENE
Cosmos 2285 Rocket 3.9 23:23:35 10° NNW 23:29:58 78° ENE 23:31:24 56° SE
Cosmos 2034 Rocket 4.4 23:29:14 10° N 23:35:20 47° E 23:36:19 44° ESE
Cosmos 1455 2.9 23:34:27 10° N 23:37:32 53° NNW 23:37:32 53° NNW
Cosmos 1891 Rocket 4.5 23:35:12 10° N 23:41:10 59° E 23:41:55 55° ESE
Cosmos 1666 Rocket 4.0 23:42:43 55° NE 23:42:43 55° NE 23:46:25 10° NNE
Cosmos 1844 Rocket 3.2 23:47:58 42° E 23:47:58 42° E 23:52:29 10° NE
Cosmos 1869 4.2 23:46:16 10° N 23:49:05 44° NNE 23:49:05 44° NNE
Cosmos 1805 Rocket 4.0 23:53:27 55° WNW 23:53:27 55° WNW 23:57:24 10° N
Lacrosse 5 3.5 23:49:34 10° WNW 23:52:53 22° WSW 23:52:53 22° WSW
